TimeMDT,TemperatureF,Dew PointF,Humidity,Sea Level PressureIn,VisibilityMPH,Wind Direction,Wind SpeedMPH,Gust SpeedMPH,PrecipitationIn,Events,Conditions,WindDirDegrees,DateUTC
12:53 AM,48.0,34.0,58,29.91,10.0,SW,3.5,-,N/A,,Clear,220,2013-10-02 06:53:00
1:53 AM,46.9,37.0,68,29.91,10.0,Calm,Calm,-,N/A,,Clear,0,2013-10-02 07:53:00
2:53 AM,44.1,35.1,71,29.91,10.0,ENE,3.5,-,N/A,,Clear,70,2013-10-02 08:53:00
3:53 AM,44.1,35.1,71,29.90,10.0,SW,4.6,-,N/A,,Clear,220,2013-10-02 09:53:00
4:53 AM,42.1,34.0,73,29.91,10.0,SSW,3.5,-,N/A,,Clear,210,2013-10-02 10:53:00
5:53 AM,39.9,33.1,77,29.93,10.0,SSW,3.5,-,N/A,,Clear,210,2013-10-02 11:53:00
6:53 AM,42.1,33.1,70,29.96,10.0,SSE,3.5,-,N/A,,Clear,150,2013-10-02 12:53:00
7:53 AM,43.0,35.1,74,29.98,10.0,Calm,Calm,-,N/A,,Clear,0,2013-10-02 13:53:00
8:53 AM,46.0,35.1,66,29.99,10.0,Calm,Calm,-,N/A,,Clear,0,2013-10-02 14:53:00
9:53 AM,53.1,34.0,48,29.98,10.0,Calm,Calm,-,N/A,,Clear,0,2013-10-02 15:53:00
10:53 AM,57.0,35.1,44,29.95,10.0,West,4.6,-,N/A,,Clear,280,2013-10-02 16:53:00
11:53 AM,63.0,30.9,30,29.91,10.0,Variable,3.5,-,N/A,,Clear,0,2013-10-02 17:53:00
12:53 PM,69.1,26.1,20,29.86,10.0,Variable,3.5,-,N/A,,Clear,0,2013-10-02 18:53:00
1:53 PM,72.0,28.0,20,29.82,10.0,West,13.8,-,N/A,,Clear,270,2013-10-02 19:53:00
2:53 PM,73.9,27.0,18,29.79,10.0,West,12.7,-,N/A,,Clear,260,2013-10-02 20:53:00
3:53 PM,73.9,27.0,18,29.77,10.0,West,13.8,-,N/A,,Clear,280,2013-10-02 21:53:00
4:53 PM,75.0,28.0,18,29.75,10.0,West,18.4,-,N/A,,Clear,260,2013-10-02 22:53:00
5:53 PM,72.0,28.0,20,29.77,10.0,West,11.5,-,N/A,,Clear,260,2013-10-02 23:53:00
6:53 PM,68.0,28.0,22,29.78,10.0,WSW,13.8,-,N/A,,Clear,250,2013-10-03 00:53:00
7:53 PM,60.1,32.0,35,29.81,10.0,SSW,4.6,-,N/A,,Clear,200,2013-10-03 01:53:00
8:53 PM,57.0,33.1,40,29.82,10.0,Calm,Calm,-,N/A,,Clear,0,2013-10-03 02:53:00
9:53 PM,61.0,28.9,30,29.80,10.0,SE,8.1,-,N/A,,Clear,130,2013-10-03 03:53:00
10:53 PM,54.0,32.0,43,29.80,10.0,East,5.8,-,N/A,,Clear,90,2013-10-03 04:53:00
11:53 PM,53.1,32.0,45,29.78,10.0,ENE,8.1,-,N/A,,Clear,70,2013-10-03 05:53:00